YO8SSH-13 Weather Reports


Display with metric or nautical units.
time (UTC)temp
F
wind
direction
speed
MPH
gust
MPH
rain 1hr
in
rain 24hr
in
rain mn
in
humidity
%
barometer
mb
20260903020637 61 202 1.0 2.0 0.08 0.18 0.18 87 1018.0
20260903015136 61 248 0.0 0.0 0.08 0.12 0.10 86 1018.0
20260903013637 61 338 0.0 0.0 0.02 0.06 0.04 85 1018.0
20260903012137 61 292 0.0 0.0 0.00 0.04 0.02 85 1018.0
20260903010637 62 338 0.0 0.0 0.00 0.04 0.02 85 1018.0
20260903005138 62 315 0.0 0.0 0.00 0.04 0.02 84 1018.0
20260903003639 62 180 0.0 0.0 0.00 0.04 0.02 84 1018.0
20260903002137 62 292 0.0 0.0 0.00 0.04 0.02 83 1018.0
20260903000638 62 292 0.0 0.0 0.00 0.04 0.02 83 1018.0
20260902235137 62 292 0.0 0.0 0.02 0.04 0.02 82 1018.0
20260902233637 63 292 0.0 0.0 0.02 0.04 0.02 82 1018.0
20260902232137 63 0 0.0 0.0 0.02 0.04 0.02 81 1018.0
20260902230638 63 0 0.0 0.0 0.02 0.04 0.02 80 1018.0
20260902225141 64 338 0.0 0.0 0.00 0.02 0.00 79 1019.0
20260902223636 64 292 0.0 4.0 0.00 0.02 0.00 79 1019.0
20260902222136 64 270 0.0 1.0 0.00 0.02 0.00 78 1019.0
20260902220637 64 22 1.0 2.0 0.00 0.02 0.00 78 1019.0
20260902215136 65 338 0.0 0.0 0.00 0.02 0.00 78 1019.0
20260902213636 65 315 0.0 0.0 0.00 0.02 0.00 78 1018.0
20260902212136 65 292 0.0 0.0 0.00 0.02 0.00 78 1018.0
20260902210636 65 292 0.0 0.0 0.00 0.02 0.00 79 1018.0
20260902205137 65 68 0.0 4.0 0.00 0.02 0.02 79 1018.0
20260902203636 65 0 0.0 1.0 0.00 0.02 0.02 80 1018.0
20260902202136 65 315 0.0 0.0 0.00 0.02 0.02 80 1018.0
20260902200637 65 292 0.0 2.0 0.00 0.02 0.02 79 1018.0
20260902195137 65 292 0.0 0.0 0.00 0.02 0.02 79 1018.0
20260902193636 65 248 0.0 0.0 0.00 0.02 0.02 79 1018.0
20260902192137 66 202 0.0 2.0 0.00 0.02 0.02 78 1018.0
20260902190636 66 0 0.0 1.0 0.00 0.34 0.02 78 1018.0
20260902185138 66 338 1.0 1.0 0.00 0.34 0.02 77 1018.0
20260902183637 67 292 0.0 2.0 0.00 0.34 0.02 77 1018.0
20260902182136 67 225 1.0 2.0 0.00 0.34 0.02 76 1018.0
20260902180636 68 292 0.0 2.0 0.00 0.34 0.02 76 1018.0
20260902175136 68 292 0.0 0.0 0.00 0.34 0.02 75 1018.0
20260902173637 69 248 0.0 0.0 0.00 0.34 0.02 74 1018.0
20260902172136 70 248 0.0 0.0 0.00 0.34 0.02 72 1018.0
20260902170636 70 248 0.0 0.0 0.00 0.34 0.02 70 1018.0
20260902165136 70 248 0.0 2.0 0.00 0.34 0.02 68 1018.0
20260902163637 71 202 0.0 0.0 0.00 0.34 0.02 67 1018.0
20260902162136 71 202 0.0 0.0 0.00 0.34 0.02 66 1018.0
20260902160637 72 202 0.0 0.0 0.00 0.34 0.02 65 1018.0
20260902155136 72 112 0.0 0.0 0.00 0.34 0.02 64 1018.0
20260902153637 73 135 0.0 0.0 0.00 0.34 0.02 63 1018.0
20260902152137 74 202 0.0 0.0 0.00 0.34 0.02 62 1018.0
20260902150637 74 158 0.0 0.0 0.00 0.34 0.02 61 1018.0
20260902145137 74 90 0.0 2.0 0.00 0.34 0.02 60 1018.0
20260902143637 74 135 0.0 0.0 0.00 0.34 0.02 63 1018.0
20260902142137 73 112 0.0 2.0 0.00 0.34 0.02 64 1018.0
20260902140637 73 225 0.0 3.0 0.00 0.34 0.02 64 1018.0
20260902135137 73 135 0.0 0.0 0.00 0.34 0.02 64 1018.0
20260902133636 74 112 0.0 0.0 0.00 0.34 0.02 62 1018.0
20260902132136 74 90 0.0 0.0 0.00 0.34 0.02 61 1018.0
20260902130636 74 180 0.0 1.0 0.00 0.34 0.02 60 1018.0
20260902125136 75 90 0.0 1.0 0.00 0.34 0.02 59 1018.0
20260902123636 76 158 0.0 0.0 0.00 0.34 0.02 58 1018.0
20260902122136 76 90 0.0 0.0 0.00 0.34 0.02 59 1018.0
20260902120637 76 225 0.0 0.0 0.00 0.34 0.02 59 1018.0
20260902115136 74 68 1.0 1.0 0.00 0.34 0.02 61 1018.0
20260902113636 74 112 0.0 1.0 0.00 0.34 0.02 62 1019.0
20260902112136 74 315 0.0 0.0 0.00 0.34 0.02 62 1019.0
20260902110635 73 180 0.0 1.0 0.00 0.34 0.02 62 1019.0
20260902105154 73 202 0.0 2.0 0.00 0.34 0.02 63 1019.0
20260902104131 73 112 2.0 2.0 0.00 0.34 0.02 63 1019.0
20260902102631 72 68 0.0 0.0 0.00 0.34 0.02 63 1019.0
20260902101131 72 202 0.0 2.0 0.00 0.34 0.02 63 1019.0
20260902095631 72 0 0.0 1.0 0.00 0.34 0.02 63 1019.0
20260902094131 72 158 0.0 2.0 0.00 0.34 0.02 63 1019.0
20260902092630 72 45 0.0 0.0 0.00 0.34 0.02 61 1019.0
20260902091130 72 112 0.0 0.0 0.00 0.34 0.02 63 1020.0
20260902085630 72 135 0.0 1.0 0.00 0.34 0.02 64 1019.0
20260902084130 71 202 0.0 1.0 0.00 0.34 0.02 66 1020.0
20260902082629 71 202 0.0 0.0 0.00 0.34 0.02 67 1020.0
20260902081129 70 180 0.0 0.0 0.00 0.34 0.02 69 1020.0
20260902075631 69 292 0.0 2.0 0.00 0.34 0.02 70 1020.0
20260902074130 68 68 0.0 0.0 0.00 0.34 0.02 73 1020.0
20260902072630 68 270 0.0 0.0 0.00 0.34 0.02 77 1020.0